TimeAKST,TemperatureF,Dew PointF,Humidity,Sea Level PressureIn,VisibilityMPH,Wind Direction,Wind SpeedMPH,Gust SpeedMPH,PrecipitationIn,Events,Conditions,WindDirDegrees,DateUTC
12:53 AM,6.1,-0.9,73,30.16,10.0,ESE,9.2,-,0.00,,Mostly Cloudy,110,2013-01-21 09:53:00
1:53 AM,6.1,-2.9,67,30.17,10.0,ESE,13.8,-,N/A,,Mostly Cloudy,110,2013-01-21 10:53:00
2:53 AM,3.9,-4.0,70,30.19,10.0,ESE,9.2,-,N/A,,Partly Cloudy,110,2013-01-21 11:53:00
3:53 AM,3.9,-4.0,70,30.21,10.0,SSE,5.8,-,N/A,,Overcast,150,2013-01-21 12:53:00
4:07 AM,3.2,-4.0,72,30.06,10.0,SE,8.1,-,N/A,,Overcast,130,2013-01-21 13:07:00
4:53 AM,3.9,-4.0,70,30.21,10.0,SE,11.5,-,N/A,,Overcast,130,2013-01-21 13:53:00
5:53 AM,3.0,-5.1,69,30.22,10.0,ESE,9.2,-,N/A,,Overcast,110,2013-01-21 14:53:00
6:53 AM,1.9,-6.0,69,30.22,10.0,East,6.9,-,N/A,,Mostly Cloudy,90,2013-01-21 15:53:00
7:53 AM,1.9,-6.0,69,30.22,10.0,ESE,13.8,-,N/A,,Mostly Cloudy,110,2013-01-21 16:53:00
8:53 AM,1.0,-7.1,69,30.23,10.0,East,11.5,-,N/A,,Scattered Clouds,100,2013-01-21 17:53:00
9:53 AM,-0.0,-7.1,72,30.23,10.0,East,4.6,-,N/A,,Scattered Clouds,100,2013-01-21 18:53:00
10:53 AM,-0.0,-7.1,72,30.22,10.0,East,4.6,-,N/A,,Scattered Clouds,100,2013-01-21 19:53:00
11:53 AM,1.0,-7.1,69,30.22,10.0,East,9.2,-,N/A,,Scattered Clouds,100,2013-01-21 20:53:00
12:53 PM,3.0,-5.1,69,30.21,10.0,ESE,9.2,-,N/A,,Scattered Clouds,110,2013-01-21 21:53:00
1:53 PM,6.1,-2.9,67,30.20,10.0,ESE,12.7,-,N/A,,Scattered Clouds,110,2013-01-21 22:53:00
2:53 PM,6.1,-0.9,73,30.19,10.0,East,13.8,-,N/A,,Scattered Clouds,100,2013-01-21 23:53:00
3:53 PM,5.0,-0.9,76,30.19,10.0,ESE,9.2,-,N/A,,Scattered Clouds,110,2013-01-22 00:53:00
4:53 PM,3.9,-2.0,76,30.18,10.0,East,6.9,-,N/A,,Scattered Clouds,80,2013-01-22 01:53:00
5:53 PM,1.9,-2.0,83,30.17,10.0,East,6.9,-,N/A,,Scattered Clouds,90,2013-01-22 02:53:00
6:53 PM,3.0,-2.0,80,30.15,10.0,East,8.1,-,N/A,,Scattered Clouds,100,2013-01-22 03:53:00
7:53 PM,3.0,-0.9,84,30.14,10.0,East,8.1,-,N/A,,Mostly Cloudy,80,2013-01-22 04:53:00
8:06 PM,3.2,-0.4,85,29.98,10.0,East,9.2,-,N/A,,Mostly Cloudy,90,2013-01-22 05:06:00
8:53 PM,3.9,-0.9,80,30.13,7.0,East,11.5,-,0.00,Snow,Light Snow,90,2013-01-22 05:53:00
9:36 PM,8.6,3.2,79,29.96,5.0,ESE,19.6,25.3,0.00,Snow,Light Snow,110,2013-01-22 06:36:00
9:53 PM,8.1,3.9,83,30.11,4.0,ESE,16.1,25.3,0.00,Snow,Light Snow,110,2013-01-22 06:53:00
10:53 PM,9.0,3.9,80,30.08,7.0,East,20.7,28.8,0.00,Snow,Light Snow,100,2013-01-22 07:53:00
11:53 PM,9.0,3.9,80,30.07,9.0,ESE,24.2,31.1,0.00,,Overcast,110,2013-01-22 08:53:00